Home   Weather   Straubing   Past weeks

Flag for Germany Past Weather in Straubing, Bavaria, Germany — Yesterday and Last 2 Weeks

Now
41 °F

Clear.


Feels Like: 41 °F
Forecast: 27 / 58 °F
Wind: 2 mph from West

Location: Straubing

Current Time: Apr 23, 2017 at 10:19:34 pm

Latest Report: Apr 23, 2017 at 9:00 pm


Visibility: 22 mi

Pressure: 30.25 "Hg

Humidity: 60%

Dew Point: 28 °F

Location of StraubingLocation

Past Weather in Straubing — Graph

°F

Straubing Temperature Yesterday

Maximum temperature yesterday: 53 °F (at 1:00 pm)
Minimum temperature yesterday: 43 °F (at 10:00 pm)
Average temperature yesterday: 48 °F

High & Low Weather Summary for the Past Weeks

 TemperatureHumidityPressure
High74 °F (Apr 10, 4:00 pm)100% (Apr 9, 6:00 am)30.59 "Hg (Apr 9, 6:00 am)
Low26 °F (Apr 21, 7:00 am)31% (Apr 10, 6:00 pm)29.86 "Hg (Apr 13, 4:00 am)
Average47 °F69%30.17 "Hg
* Reported Apr 8 9:00 pm — Apr 23 9:00 pm, Straubing, Weather by CustomWeather, © 2017

Note: Actual official high and low records may vary slightly from our data, if they occured in-between our weather recording intervals... More about our weather records

Advertising

Straubing Weather History for the Previous 24 Hours

Scroll right to see more
 ConditionsComfort  
Time TempWeatherWind HumidityBarometerVisibility
9:00 pm
Sun, Apr 23
41 °FClear.2 mph60%30.25 "Hg22 mi
7:00 pm46 °FOvercast.3 mph48%30.22 "Hg25 mi
6:00 pm47 °FScattered clouds.6 mph45%30.22 "Hg13 mi
4:00 pm47 °FOvercast.5 mph47%30.21 "Hg18 mi
3:00 pm48 °FOvercast.3 mph48%30.22 "Hg10 mi
1:00 pm46 °FPartly sunny.6 mph46%30.22 "Hg10 mi
12:00 pm45 °FOvercast.5 mph62%30.23 "Hg14 mi
10:00 am43 °FOvercast.3 mph63%30.24 "Hg16 mi
9:00 am43 °FPartly sunny.5 mph65%30.23 "Hg17 mi
7:00 am39 °FOvercast.3 mph84%30.22 "Hg11 mi
6:00 am39 °FOvercast.3 mph83%30.20 "Hg14 mi
4:00 am41 °FOvercast.3 mph79%30.19 "Hg14 mi
3:00 am41 °FOvercast.2 mph83%30.18 "Hg14 mi
1:00 am42 °FOvercast.3 mph87%30.17 "Hg9 mi
12:00 am42 °FOvercast.3 mph90%30.17 "Hg7 mi
10:00 pm
Sat, Apr 22
43 °FPassing clouds.3 mph93%30.17 "Hg7 mi
Weather by CustomWeather, © 2017

See weather overviewHow to use our weather pages